This demonstration page uses our WeatherBlox Daily Observations layout. Learn more.

Left ArrowRight Arrow

36.17497, -115.13722

Hourly Observations for September 7, 2016

Temp ( °F °C ) Dew Point ( °F °C ) Humidity (%) Winds ( mph kmh ) Pressure ( in mb ) Visibility ( mi km ) Precip ( " mm )
12:53 am 00:53 Clear 76 24.4 26 -3.3 16 16 WNW 5 7 29.86 1011 10 16.0934 0 0
1:53 am 01:53 Clear 74 23.3 29 -1.7 19 19 WNW 6 9 29.86 1011 10 16.0934 0 0
2:53 am 02:53 Clear 71 21.7 30 -1.1 22 22 NNW 3 6 29.87 1012 10 16.0934 0 0
3:53 am 03:53 Clear 70 21.1 28 -2.2 21 21 Calm 29.87 1012 10 16.0934 0 0
4:53 am 04:53 Clear 68 20 26 -3.3 21 21 NNW 6 9 29.88 1012 10 16.0934 0 0
5:53 am 05:53 Clear 68 20 25 -3.9 20 20 NNW 6 9 29.9 1012 10 16.0934 0 0
6:53 am 06:53 Sunny 69 20.6 27 -2.8 21 21 NNW 3 6 29.93 1014 10 16.0934 0 0
7:53 am 07:53 Sunny 75 23.9 27 -2.8 17 17 Calm 29.95 1014 10 16.0934 0 0
8:53 am 08:53 Sunny 80 26.7 27 -2.8 14 14 Calm 29.97 1015 10 16.0934 0 0
9:53 am 09:53 Sunny 84 28.9 26 -3.3 12 12 SE 5 7 29.98 1015 10 16.0934 0 0
10:53 am 10:53 Sunny 86 30 30 -1.1 13 13 Calm 29.98 1015 10 16.0934 0 0
11:53 am 11:53 Sunny 89 31.7 31 -0.6 12 12 undefined N/A 29.96 1015 10 16.0934 0 0
12:53 pm 12:53 Sunny 92 33.3 38 3.3 15 15 SSE 9 15 29.95 1014 10 16.0934 0 0
1:53 pm 13:53 Sunny 94 34.4 43 6.1 17 17 S 8 13 29.93 1013 10 16.0934 0 0
2:53 pm 14:53 Sunny 96 35.6 45 7.2 17 17 S 9 15 29.9 1013 10 16.0934 0 0
3:53 pm 15:53 Sunny 96 35.6 47 8.3 19 19 SSE 15 24 29.89 1012 10 16.0934 0 0
4:53 pm 16:53 Sunny 95 35 50 10 22 22 SE 15 24 29.88 1012 10 16.0934 0 0
5:53 pm 17:53 Sunny 94 34.4 53 11.7 25 25 ESE 16 26 29.87 1012 10 16.0934 0 0
6:53 pm 18:53 Sunny 92 33.3 53 11.7 27 27 SSE 16 26 29.88 1012 10 16.0934 0 0
7:53 pm 19:53 Clear 90 32.2 53 11.7 28 28 SE 13 20 29.9 1013 10 16.0934 0 0
8:53 pm 20:53 Clear 87 30.6 54 12.2 32 32 SE 8 13 29.91 1013 10 16.0934 0 0
9:53 pm 21:53 Clear 87 30.6 45 7.2 23 23 WNW 3 6 29.93 1014 10 16.0934 0 0
10:53 pm 22:53 Clear 85 29.4 55 12.8 36 36 Calm 29.95 1014 10 16.0934 0 0
11:53 pm 23:53 Clear 81 27.2 54 12.2 39 39 NNW 5 7 29.95 1014 10 16.0934 0 0

Powered by AerisWeather